,,,PA_Meas_PMT16A,,PR_Meas_QMR101_102,,RH_Meas_QMH101,,SR_Meas_QMS101,,TA_Meas_QMH101,,GenWind,,GenWind,
date,time,status,PA,status,PR,status,RH,status,SR,status,TA,status,DirAvg,status,SpdAvg,
2008-05-26, 00:00:04,VALID,1005.16,VALID,0,VALID,95.7959,VALID,0,VALID,23.0436,VALID,12,VALID,0.649609,
2008-05-26, 00:01:04,VALID,1005.12,VALID,0,VALID,95.8187,VALID,0,VALID,23.0224,VALID,10,VALID,0.730859,
2008-05-26, 00:02:04,VALID,1005.12,VALID,0,VALID,95.8798,VALID,0.100563,VALID,23.0418,VALID,4,VALID,0.500391,
2008-05-26, 00:03:04,VALID,1005.13,VALID,0,VALID,95.895,VALID,0,VALID,23.0418,VALID,4,VALID,0.541406,
2008-05-26, 00:04:04,VALID,1005.11,VALID,0,VALID,95.8493,VALID,0,VALID,23.0613,VALID,4,VALID,0.405078,
2008-05-26, 00:05:04,VALID,1005.11,VALID,0,VALID,95.8111,VALID,0,VALID,23.0613,VALID,4,VALID,0.432422,
2008-05-26, 00:06:04,VALID,1005.08,VALID,0,VALID,95.8111,VALID,0,VALID,23.0418,VALID,4,VALID,0.525781,
2008-05-26, 00:07:05,VALID,1005.06,VALID,0,VALID,95.8874,VALID,0,VALID,23.063,VALID,4,VALID,0.264844,
2008-05-26, 00:08:05,VALID,1005.03,VALID,0,VALID,95.8874,VALID,0.100563,VALID,23.0418,VALID,4,VALID,0.182031,
2008-05-26, 00:09:05,VALID,1005.06,VALID,0,VALID,95.9255,VALID,0.100563,VALID,23.0825,VALID,4,VALID,0.219531,
2008-05-26, 00:10:05,VALID,1005.05,VALID,0,VALID,95.8721,VALID,0,VALID,23.0418,VALID,4,VALID,0.219531,
2008-05-26, 00:11:05,VALID,1005.05,VALID,0,VALID,95.8111,VALID,0,VALID,23.0418,VALID,4,VALID,0.0964844,
2008-05-26, 00:12:05,VALID,1005.07,VALID,0,VALID,95.8035,VALID,0,VALID,23.0224,VALID,4,VALID,0,
2008-05-26, 00:13:05,VALID,1005.06,VALID,0,VALID,95.8493,VALID,0,VALID,23.0436,VALID,4,VALID,0.003125,
2008-05-26, 00:14:05,VALID,1005.04,VALID,0,VALID,95.8798,VALID,0,VALID,23.0224,VALID,4,VALID,0.176172,
2008-05-26, 00:15:05,VALID,1005.05,VALID,0,VALID,95.9713,VALID,0,VALID,23.0418,VALID,4,VALID,0.238281,
2008-05-26, 00:16:04,VALID,1005.03,VALID,0,VALID,95.9561,VALID,0,VALID,23.0825,VALID,4,VALID,0.21875,
2008-05-26, 00:17:04,VALID,1005.03,VALID,0,VALID,95.9332,VALID,0.100563,VALID,23.0613,VALID,4,VALID,0.176563,
2008-05-26, 00:18:04,VALID,1005.03,VALID,0,VALID,95.8798,VALID,0.100563,VALID,23.0613,VALID,4,VALID,0,
2008-05-26, 00:19:04,VALID,1005.04,VALID,0,VALID,95.8416,VALID,0,VALID,23.0224,VALID,4,VALID,0,
2008-05-26, 00:20:04,VALID,1005.04,VALID,0,VALID,95.7882,VALID,0,VALID,23.0436,VALID,4,VALID,0,
2008-05-26, 00:21:04,VALID,1005.03,VALID,0,VALID,95.834,VALID,0,VALID,23.0029,VALID,4,VALID,0,
2008-05-26, 00:22:04,VALID,1005.01,VALID,0,VALID,95.8416,VALID,0,VALID,22.9834,VALID,4,VALID,0,
2008-05-26, 00:23:04,VALID,1005.01,VALID,0,VALID,95.8569,VALID,0.100563,VALID,22.9834,VALID,4,VALID,0.238281,
2008-05-26, 00:24:04,VALID,1005.01,VALID,0,VALID,95.8569,VALID,0,VALID,22.964,VALID,4,VALID,0.155859,
2008-05-26, 00:25:04,VALID,1005.01,VALID,0,VALID,95.8645,VALID,0,VALID,22.9657,VALID,4,VALID,0.169141,
2008-05-26, 00:26:04,VALID,1005,VALID,0,VALID,95.8111,VALID,0,VALID,22.9251,VALID,4,VALID,0.494922,
2008-05-26, 00:27:04,VALID,1004.99,VALID,0,VALID,95.9027,VALID,0,VALID,22.9251,VALID,4,VALID,0.0429688,
2008-05-26, 00:28:04,VALID,1005.01,VALID,0,VALID,95.9179,VALID,0.100563,VALID,22.9251,VALID,4,VALID,0.24375,
2008-05-26, 00:29:04,VALID,1005.02,VALID,0,VALID,95.9179,VALID,0,VALID,22.9463,VALID,4,VALID,0.025,
2008-05-26, 00:30:04,VALID,1005.03,VALID,0,VALID,95.9027,VALID,0,VALID,22.9463,VALID,4,VALID,0.0816406,
2008-05-26, 00:31:04,VALID,1005.04,VALID,0,VALID,95.9332,VALID,0,VALID,22.9463,VALID,4,VALID,0,
2008-05-26, 00:32:04,VALID,1005.03,VALID,0,VALID,95.9027,VALID,0,VALID,22.9056,VALID,4,VALID,0.05,
2008-05-26, 00:33:04,VALID,1005.03,VALID,0,VALID,95.9179,VALID,0,VALID,22.9251,VALID,4,VALID,0,
2008-05-26, 00:34:04,VALID,1005.01,VALID,0,VALID,95.9332,VALID,0.100563,VALID,22.9268,VALID,4,VALID,0,
2008-05-26, 00:35:04,VALID,1005.02,VALID,0,VALID,95.9484,VALID,0,VALID,22.9251,VALID,4,VALID,0,
2008-05-26, 00:36:04,VALID,1005,VALID,0,VALID,95.9484,VALID,0.100563,VALID,22.9056,VALID,4,VALID,0,
2008-05-26, 00:37:04,VALID,1005,VALID,0,VALID,95.9332,VALID,0,VALID,22.9056,VALID,4,VALID,0,
2008-05-26, 00:38:04,VALID,1005.03,VALID,0,VALID,95.8798,VALID,0,VALID,22.9073,VALID,4,VALID,0,
2008-05-26, 00:39:04,VALID,1005.03,VALID,0,VALID,95.8798,VALID,0,VALID,22.8472,VALID,4,VALID,0,
2008-05-26, 00:40:04,VALID,1005.05,VALID,0,VALID,95.8874,VALID,0.100563,VALID,22.8472,VALID,4,VALID,0,
2008-05-26, 00:41:04,VALID,1005.04,VALID,0,VALID,95.8645,VALID,0,VALID,22.8278,VALID,4,VALID,0,
2008-05-26, 00:42:04,VALID,1005.01,VALID,0,VALID,95.9408,VALID,0.100563,VALID,22.8278,VALID,4,VALID,0,
2008-05-26, 00:43:04,VALID,1005,VALID,0,VALID,95.9332,VALID,0.100563,VALID,22.8489,VALID,4,VALID,0,
2008-05-26, 00:44:04,VALID,1005.02,VALID,0,VALID,95.8416,VALID,0,VALID,22.7888,VALID,4,VALID,0,
2008-05-26, 00:45:04,VALID,1004.99,VALID,0,VALID,95.8111,VALID,0,VALID,22.7482,VALID,4,VALID,0,
2008-05-26, 00:46:04,VALID,1004.97,VALID,0,VALID,95.8187,VALID,0.100563,VALID,22.7305,VALID,4,VALID,0,
2008-05-26, 00:47:04,VALID,1004.93,VALID,0,VALID,95.8645,VALID,0.100563,VALID,22.7305,VALID,4,VALID,0,
2008-05-26, 00:48:04,VALID,1004.9,VALID,0,VALID,95.8569,VALID,0,VALID,22.6915,VALID,4,VALID,0,
2008-05-26, 00:49:04,VALID,1004.88,VALID,0,VALID,95.7882,VALID,0,VALID,22.7127,VALID,4,VALID,0,
2008-05-26, 00:50:04,VALID,1004.86,VALID,0,VALID,95.8493,VALID,0,VALID,22.6526,VALID,4,VALID,0,
2008-05-26, 00:51:04,VALID,1004.84,VALID,0,VALID,95.9637,VALID,0,VALID,22.6721,VALID,4,VALID,0,
2008-05-26, 00:52:04,VALID,1004.84,VALID,0,VALID,95.9179,VALID,0,VALID,22.6933,VALID,4,VALID,0,
2008-05-26, 00:53:04,VALID,1004.88,VALID,0,VALID,95.9179,VALID,0,VALID,22.6738,VALID,4,VALID,0,
2008-05-26, 00:54:04,VALID,1004.87,VALID,0,VALID,95.9484,VALID,0,VALID,22.6738,VALID,4,VALID,0,
2008-05-26, 00:55:04,VALID,1004.9,VALID,0,VALID,96.0476,VALID,0.100563,VALID,22.7127,VALID,4,VALID,0,
2008-05-26, 00:56:04,VALID,1004.88,VALID,0,VALID,96.0552,VALID,0,VALID,22.7127,VALID,4,VALID,0.0992187,
2008-05-26, 00:57:04,VALID,1004.88,VALID,0,VALID,96.0552,VALID,0,VALID,22.6915,VALID,4,VALID,0.0652344,
2008-05-26, 00:58:04,VALID,1004.84,VALID,0,VALID,96.0095,VALID,0.100563,VALID,22.7127,VALID,4,VALID,0.0195313,
2008-05-26, 00:59:04,VALID,1004.83,VALID,0,VALID,95.9561,VALID,0,VALID,22.6738,VALID,4,VALID,0.100391,
2008-05-26, 01:00:04,VALID,1004.8,VALID,0,VALID,96.0857,VALID,0,VALID,22.7127,VALID,4,VALID,0,
2008-05-26, 01:01:04,VALID,1004.8,VALID,0,VALID,95.9942,VALID,0,VALID,22.6721,VALID,4,VALID,0,
2008-05-26, 01:02:04,VALID,1004.75,VALID,0,VALID,96.0095,VALID,0,VALID,22.6526,VALID,4,VALID,0,
2008-05-26, 01:03:04,VALID,1004.82,VALID,0,VALID,96.0323,VALID,0.100563,VALID,22.6933,VALID,4,VALID,0.202344,
2008-05-26, 01:04:04,VALID,1004.82,VALID,0,VALID,96.04,VALID,0.100563,VALID,22.6526,VALID,4,VALID,0.258984,
2008-05-26, 01:05:04,VALID,1004.82,VALID,0,VALID,96.1239,VALID,0.100563,VALID,22.6915,VALID,4,VALID,0.236328,
2008-05-26, 01:06:04,VALID,1004.83,VALID,0,VALID,96.0934,VALID,0,VALID,22.7127,VALID,12,VALID,0.401953,
2008-05-26, 01:07:04,VALID,1004.86,VALID,0,VALID,96.1697,VALID,0,VALID,22.7516,VALID,12,VALID,0.336719,
2008-05-26, 01:08:04,VALID,1004.86,VALID,0,VALID,96.1926,VALID,0,VALID,22.7906,VALID,12,VALID,0.276172,
2008-05-26, 01:09:04,VALID,1004.86,VALID,0,VALID,96.2231,VALID,0.100563,VALID,22.7888,VALID,12,VALID,0,
2008-05-26, 01:10:04,VALID,1004.87,VALID,0,VALID,96.3222,VALID,0,VALID,22.8472,VALID,5,VALID,0,
2008-05-26, 01:11:04,VALID,1004.84,VALID,0,VALID,96.3222,VALID,0,VALID,22.8879,VALID,5,VALID,0,
2008-05-26, 01:12:04,VALID,1004.86,VALID,0,VALID,96.246,VALID,0,VALID,22.9073,VALID,5,VALID,0,
2008-05-26, 01:13:04,VALID,1004.84,VALID,0,VALID,96.1926,VALID,0,VALID,22.9073,VALID,5,VALID,0,
2008-05-26, 01:14:04,VALID,1004.82,VALID,0,VALID,96.2154,VALID,0,VALID,22.9073,VALID,5,VALID,0,
2008-05-26, 01:15:04,VALID,1004.81,VALID,0,VALID,96.1849,VALID,0,VALID,22.9073,VALID,5,VALID,0,
2008-05-26, 01:16:04,VALID,1004.84,VALID,0,VALID,96.1468,VALID,0,VALID,22.9268,VALID,5,VALID,0,
2008-05-26, 01:17:04,VALID,1004.85,VALID,0,VALID,96.0781,VALID,0,VALID,22.9073,VALID,5,VALID,0,
2008-05-26, 01:18:04,VALID,1004.84,VALID,0,VALID,96.0247,VALID,0,VALID,22.8684,VALID,5,VALID,0,
2008-05-26, 01:19:04,VALID,1004.82,VALID,0,VALID,95.9942,VALID,0,VALID,22.8489,VALID,5,VALID,0,
2008-05-26, 01:20:04,VALID,1004.83,VALID,0,VALID,95.9713,VALID,0,VALID,22.81,VALID,5,VALID,0,
2008-05-26, 01:21:04,VALID,1004.82,VALID,0,VALID,95.9866,VALID,0,VALID,22.8312,VALID,5,VALID,0,
2008-05-26, 01:22:04,VALID,1004.82,VALID,0,VALID,95.9789,VALID,0,VALID,22.7906,VALID,5,VALID,0,
2008-05-26, 01:23:04,VALID,1004.8,VALID,0,VALID,96.0018,VALID,0,VALID,22.7923,VALID,5,VALID,0,
2008-05-26, 01:24:04,VALID,1004.8,VALID,0,VALID,96.0323,VALID,0,VALID,22.7711,VALID,5,VALID,0,
2008-05-26, 01:25:04,VALID,1004.8,VALID,0,VALID,96.0476,VALID,0,VALID,22.8118,VALID,5,VALID,0,
2008-05-26, 01:26:04,VALID,1004.78,VALID,0,VALID,96.0857,VALID,0,VALID,22.81,VALID,5,VALID,0,
2008-05-26, 01:27:04,VALID,1004.78,VALID,0,VALID,96.0705,VALID,0.100563,VALID,22.7888,VALID,5,VALID,0,
2008-05-26, 01:28:04,VALID,1004.8,VALID,0,VALID,96.1086,VALID,0.100563,VALID,22.8083,VALID,6,VALID,0,
2008-05-26, 01:29:04,VALID,1004.8,VALID,0,VALID,96.1697,VALID,0,VALID,22.8278,VALID,6,VALID,0,
2008-05-26, 01:30:04,VALID,1004.83,VALID,0,VALID,96.2002,VALID,0.100563,VALID,22.8472,VALID,31,VALID,0,
2008-05-26, 01:31:04,VALID,1004.82,VALID,0,VALID,96.1926,VALID,0.100563,VALID,22.8667,VALID,83,VALID,0,
2008-05-26, 01:32:04,VALID,1004.85,VALID,0,VALID,96.162,VALID,0.100563,VALID,22.8667,VALID,86,VALID,0,
2008-05-26, 01:33:04,VALID,1004.84,VALID,0,VALID,96.1392,VALID,0.100563,VALID,22.8472,VALID,86,VALID,0,
2008-05-26, 01:34:04,VALID,1004.84,VALID,0,VALID,96.0705,VALID,0.100563,VALID,22.8278,VALID,86,VALID,0,
2008-05-26, 01:35:04,VALID,1004.83,VALID,0,VALID,96.0552,VALID,0.100563,VALID,22.8295,VALID,86,VALID,0,
2008-05-26, 01:36:04,VALID,1004.81,VALID,0,VALID,96.0552,VALID,0.100563,VALID,22.7888,VALID,86,VALID,0,
2008-05-26, 01:37:04,VALID,1004.83,VALID,0,VALID,96.0705,VALID,0.100563,VALID,22.7888,VALID,86,VALID,0,
2008-05-26, 01:38:04,VALID,1004.8,VALID,0,VALID,96.1315,VALID,0,VALID,22.81,VALID,86,VALID,0,
2008-05-26, 01:39:04,VALID,1004.83,VALID,0,VALID,96.1315,VALID,0,VALID,22.81,VALID,86,VALID,0,
2008-05-26, 01:40:04,VALID,1004.81,VALID,0,VALID,96.1468,VALID,0.100563,VALID,22.8083,VALID,86,VALID,0,
2008-05-26, 01:41:04,VALID,1004.84,VALID,0,VALID,96.1544,VALID,0,VALID,22.8295,VALID,86,VALID,0,
2008-05-26, 01:42:04,VALID,1004.86,VALID,0,VALID,96.1392,VALID,0,VALID,22.8083,VALID,86,VALID,0,
2008-05-26, 01:43:04,VALID,1004.88,VALID,0,VALID,96.1163,VALID,0,VALID,22.8083,VALID,86,VALID,0,
2008-05-26, 01:44:04,VALID,1004.93,VALID,0,VALID,96.0934,VALID,0,VALID,22.7694,VALID,86,VALID,0,
2008-05-26, 01:45:04,VALID,1004.95,VALID,0,VALID,96.1086,VALID,0,VALID,22.7694,VALID,86,VALID,0,
2008-05-26, 01:46:04,VALID,1004.99,VALID,0,VALID,96.101,VALID,0.100563,VALID,22.7888,VALID,86,VALID,0,
2008-05-26, 01:47:04,VALID,1005.05,VALID,0,VALID,96.0857,VALID,0,VALID,22.7694,VALID,86,VALID,0,
2008-05-26, 01:48:04,VALID,1005.06,VALID,0,VALID,96.1468,VALID,0,VALID,22.7482,VALID,86,VALID,0,
2008-05-26, 01:49:04,VALID,1005.07,VALID,0,VALID,96.1163,VALID,0,VALID,22.7694,VALID,86,VALID,0,
2008-05-26, 01:50:04,VALID,1005.09,VALID,0,VALID,96.1163,VALID,0,VALID,22.7694,VALID,86,VALID,0,
2008-05-26, 01:51:04,VALID,1005.11,VALID,0,VALID,96.1239,VALID,0,VALID,22.7888,VALID,86,VALID,0,
2008-05-26, 01:52:04,VALID,1005.1,VALID,0,VALID,96.1697,VALID,0.100563,VALID,22.7888,VALID,86,VALID,0,
2008-05-26, 01:53:04,VALID,1005.11,VALID,0,VALID,96.1926,VALID,0.100563,VALID,22.7888,VALID,86,VALID,0,
2008-05-26, 01:54:04,VALID,1005.11,VALID,0,VALID,96.1849,VALID,0.100563,VALID,22.8083,VALID,86,VALID,0,
2008-05-26, 01:55:04,VALID,1005.13,VALID,0,VALID,96.162,VALID,0.100563,VALID,22.8083,VALID,86,VALID,0,
2008-05-26, 01:56:04,VALID,1005.13,VALID,0,VALID,96.1315,VALID,0.100563,VALID,22.7888,VALID,86,VALID,0,
2008-05-26, 01:57:04,VALID,1005.08,VALID,0,VALID,96.101,VALID,0.100563,VALID,22.7694,VALID,86,VALID,0,
2008-05-26, 01:58:04,VALID,1005.08,VALID,0,VALID,96.101,VALID,0.100563,VALID,22.7694,VALID,86,VALID,0,
2008-05-26, 01:59:04,VALID,1005.07,VALID,0,VALID,96.0629,VALID,0,VALID,22.7499,VALID,86,VALID,0,
2008-05-26, 02:00:04,VALID,1005.06,VALID,0,VALID,96.0781,VALID,0.100563,VALID,22.7516,VALID,86,VALID,0,
2008-05-26, 02:01:04,VALID,1005.03,VALID,0,VALID,96.0629,VALID,0.100563,VALID,22.711,VALID,86,VALID,0,
2008-05-26, 02:02:04,VALID,1005.01,VALID,0,VALID,96.0705,VALID,0,VALID,22.7127,VALID,86,VALID,0,
2008-05-26, 02:03:04,VALID,1005.04,VALID,0,VALID,96.0323,VALID,0.100563,VALID,22.6721,VALID,86,VALID,0,
2008-05-26, 02:04:04,VALID,1005.03,VALID,0,VALID,96.1697,VALID,0,VALID,22.6721,VALID,86,VALID,0,
2008-05-26, 02:05:04,VALID,1004.97,VALID,0,VALID,96.1544,VALID,0,VALID,22.6721,VALID,86,VALID,0,
2008-05-26, 02:06:04,VALID,1004.99,VALID,0,VALID,96.1086,VALID,0,VALID,22.6933,VALID,86,VALID,0,
2008-05-26, 02:07:04,VALID,1004.96,VALID,0,VALID,96.1239,VALID,0.100563,VALID,22.6526,VALID,86,VALID,0,
2008-05-26, 02:08:04,VALID,1004.95,VALID,0,VALID,96.1697,VALID,0,VALID,22.6526,VALID,86,VALID,0,
2008-05-26, 02:09:04,VALID,1004.95,VALID,0,VALID,96.2002,VALID,0.100563,VALID,22.6721,VALID,86,VALID,0,
2008-05-26, 02:10:04,VALID,1004.93,VALID,0,VALID,96.2078,VALID,0.100563,VALID,22.6915,VALID,86,VALID,0,
2008-05-26, 02:11:04,VALID,1004.9,VALID,0,VALID,96.1926,VALID,0,VALID,22.6526,VALID,86,VALID,0,
2008-05-26, 02:12:04,VALID,1004.89,VALID,0,VALID,96.162,VALID,0,VALID,22.6738,VALID,86,VALID,0,
2008-05-26, 02:13:04,VALID,1004.9,VALID,0,VALID,96.1392,VALID,0,VALID,22.6349,VALID,86,VALID,0,
2008-05-26, 02:14:04,VALID,1004.88,VALID,0,VALID,96.1163,VALID,0,VALID,22.6349,VALID,86,VALID,0,
2008-05-26, 02:15:04,VALID,1004.89,VALID,0,VALID,96.1163,VALID,0,VALID,22.6154,VALID,86,VALID,0,
2008-05-26, 02:16:04,VALID,1004.87,VALID,0,VALID,96.1392,VALID,0,VALID,22.6154,VALID,86,VALID,0,
2008-05-26, 02:17:04,VALID,1004.89,VALID,0,VALID,96.2078,VALID,0,VALID,22.6349,VALID,86,VALID,0,
2008-05-26, 02:18:04,VALID,1004.87,VALID,0,VALID,96.3375,VALID,0,VALID,22.6933,VALID,86,VALID,0,
2008-05-26, 02:19:04,VALID,1004.86,VALID,0,VALID,96.3756,VALID,0,VALID,22.7305,VALID,86,VALID,0,
2008-05-26, 02:20:04,VALID,1004.82,VALID,0,VALID,96.3604,VALID,0,VALID,22.7499,VALID,86,VALID,0,
2008-05-26, 02:21:04,VALID,1004.78,VALID,0,VALID,96.3985,VALID,0,VALID,22.7888,VALID,86,VALID,0,
2008-05-26, 02:22:04,VALID,1004.76,VALID,0,VALID,96.368,VALID,0,VALID,22.8083,VALID,86,VALID,0,
2008-05-26, 02:23:04,VALID,1004.71,VALID,0,VALID,96.3222,VALID,0,VALID,22.81,VALID,86,VALID,0,
2008-05-26, 02:24:04,VALID,1004.73,VALID,0,VALID,96.2994,VALID,0,VALID,22.81,VALID,86,VALID,0,
2008-05-26, 02:25:04,VALID,1004.7,VALID,0,VALID,96.2917,VALID,0,VALID,22.81,VALID,86,VALID,0,
2008-05-26, 02:26:04,VALID,1004.66,VALID,0,VALID,96.2231,VALID,0.100563,VALID,22.7888,VALID,86,VALID,0,
2008-05-26, 02:27:04,VALID,1004.67,VALID,0,VALID,96.2231,VALID,0.100563,VALID,22.7694,VALID,86,VALID,0,
2008-05-26, 02:28:04,VALID,1004.69,VALID,0,VALID,96.2383,VALID,0.100563,VALID,22.7694,VALID,86,VALID,0,
2008-05-26, 02:29:04,VALID,1004.66,VALID,0,VALID,96.2383,VALID,0.100563,VALID,22.7499,VALID,86,VALID,0,
2008-05-26, 02:30:04,VALID,1004.68,VALID,0,VALID,96.2154,VALID,0.100563,VALID,22.7711,VALID,86,VALID,0,
2008-05-26, 02:31:04,VALID,1004.68,VALID,0,VALID,96.2307,VALID,0.100563,VALID,22.7322,VALID,86,VALID,0,
2008-05-26, 02:32:04,VALID,1004.68,VALID,0,VALID,96.2994,VALID,0.100563,VALID,22.7499,VALID,86,VALID,0,
2008-05-26, 02:33:04,VALID,1004.69,VALID,0,VALID,96.368,VALID,0,VALID,22.7694,VALID,86,VALID,0,
2008-05-26, 02:34:04,VALID,1004.71,VALID,0,VALID,96.3833,VALID,0,VALID,22.8083,VALID,86,VALID,0,
2008-05-26, 02:35:04,VALID,1004.72,VALID,0,VALID,96.4062,VALID,0,VALID,22.8472,VALID,86,VALID,0,
2008-05-26, 02:36:04,VALID,1004.71,VALID,0,VALID,96.307,VALID,0.100563,VALID,22.8489,VALID,86,VALID,0,
2008-05-26, 02:37:04,VALID,1004.77,VALID,0,VALID,96.1773,VALID,0.100563,VALID,22.7888,VALID,86,VALID,0,
2008-05-26, 02:38:04,VALID,1004.75,VALID,0,VALID,96.1239,VALID,0,VALID,22.7516,VALID,86,VALID,0,
2008-05-26, 02:39:04,VALID,1004.76,VALID,0,VALID,96.1315,VALID,0.100563,VALID,22.711,VALID,86,VALID,0,
2008-05-26, 02:40:04,VALID,1004.79,VALID,0,VALID,96.1544,VALID,0,VALID,22.7127,VALID,86,VALID,0,
2008-05-26, 02:41:04,VALID,1004.77,VALID,0,VALID,96.1544,VALID,0,VALID,22.6526,VALID,86,VALID,0,
2008-05-26, 02:42:04,VALID,1004.82,VALID,0,VALID,96.1926,VALID,0,VALID,22.6526,VALID,85,VALID,0,
2008-05-26, 02:43:04,VALID,1004.77,VALID,0,VALID,96.2612,VALID,0,VALID,22.6721,VALID,53,VALID,0.654297,
2008-05-26, 02:44:04,VALID,1004.77,VALID,0,VALID,96.3909,VALID,0,VALID,22.7305,VALID,49,VALID,0.517578,
2008-05-26, 02:45:04,VALID,1004.75,VALID,0,VALID,96.5282,VALID,0.100563,VALID,22.8472,VALID,48,VALID,0.535547,
2008-05-26, 02:46:04,VALID,1004.73,VALID,0,VALID,96.5893,VALID,0.100563,VALID,22.9852,VALID,47,VALID,0.598828,
2008-05-26, 02:47:04,VALID,1004.74,VALID,0,VALID,96.4596,VALID,0.100563,VALID,22.9056,VALID,47,VALID,0.466797,
2008-05-26, 02:48:04,VALID,1004.7,VALID,0,VALID,96.4901,VALID,0,VALID,22.9463,VALID,47,VALID,0.539063,
2008-05-26, 02:49:04,VALID,1004.72,VALID,0,VALID,96.4977,VALID,0,VALID,22.9852,VALID,47,VALID,0.480859,
2008-05-26, 02:50:04,VALID,1004.68,VALID,0,VALID,96.5587,VALID,0.100563,VALID,23.063,VALID,47,VALID,0.486328,
2008-05-26, 02:51:04,VALID,1004.66,VALID,0,VALID,96.5511,VALID,0.100563,VALID,23.1019,VALID,47,VALID,0.190625,
2008-05-26, 02:52:04,VALID,1004.67,VALID,0,VALID,96.5587,VALID,0.100563,VALID,23.1391,VALID,47,VALID,0.361719,
2008-05-26, 02:53:04,VALID,1004.67,VALID,0,VALID,96.4825,VALID,0,VALID,23.1603,VALID,48,VALID,0.339844,
2008-05-26, 02:54:04,VALID,1004.65,VALID,0,VALID,96.4748,VALID,0,VALID,23.1586,VALID,49,VALID,0.233203,
2008-05-26, 02:55:04,VALID,1004.63,VALID,0,VALID,96.4977,VALID,0,VALID,23.1975,VALID,49,VALID,0.180078,
2008-05-26, 02:56:04,VALID,1004.64,VALID,0,VALID,96.4367,VALID,0,VALID,23.2187,VALID,49,VALID,0.297656,
2008-05-26, 02:57:04,VALID,1004.64,VALID,0,VALID,96.5282,VALID,0,VALID,23.2559,VALID,49,VALID,0.262109,
2008-05-26, 02:58:04,VALID,1004.63,VALID,0,VALID,96.5435,VALID,0,VALID,23.355,VALID,49,VALID,0,
2008-05-26, 02:59:04,VALID,1004.64,VALID,0,VALID,96.5053,VALID,0,VALID,23.3939,VALID,49,VALID,0.312891,
2008-05-26, 03:00:04,VALID,1004.63,VALID,0,VALID,96.4748,VALID,0,VALID,23.3532,VALID,49,VALID,0.274609,
2008-05-26, 03:01:04,VALID,1004.62,VALID,0,VALID,96.4062,VALID,0,VALID,23.355,VALID,49,VALID,0.338672,
2008-05-26, 03:02:04,VALID,1004.61,VALID,0,VALID,96.3528,VALID,0,VALID,23.3143,VALID,49,VALID,0.258203,
2008-05-26, 03:03:04,VALID,1004.59,VALID,0,VALID,96.368,VALID,0,VALID,23.3143,VALID,49,VALID,0.400781,
2008-05-26, 03:04:04,VALID,1004.58,VALID,0,VALID,96.4138,VALID,0.100563,VALID,23.332,VALID,51,VALID,0.408203,
2008-05-26, 03:05:04,VALID,1004.57,VALID,0,VALID,96.4062,VALID,0,VALID,23.3939,VALID,51,VALID,0.192578,
2008-05-26, 03:06:04,VALID,1004.58,VALID,0,VALID,96.3528,VALID,0.100563,VALID,23.3727,VALID,51,VALID,0.331641,
2008-05-26, 03:07:04,VALID,1004.57,VALID,0,VALID,96.3222,VALID,0,VALID,23.3355,VALID,51,VALID,0.375391,
2008-05-26, 03:08:04,VALID,1004.55,VALID,0,VALID,96.3451,VALID,0.100563,VALID,23.3143,VALID,51,VALID,0.354688,
2008-05-26, 03:09:04,VALID,1004.55,VALID,0,VALID,96.4138,VALID,0.100563,VALID,23.3532,VALID,51,VALID,0.283984,
2008-05-26, 03:10:04,VALID,1004.55,VALID,0,VALID,96.3909,VALID,0.100563,VALID,23.3532,VALID,51,VALID,0.192578,
2008-05-26, 03:11:04,VALID,1004.55,VALID,0,VALID,96.4596,VALID,0,VALID,23.3921,VALID,51,VALID,0.172266,
2008-05-26, 03:12:04,VALID,1004.54,VALID,0,VALID,96.307,VALID,0,VALID,23.355,VALID,51,VALID,0,
2008-05-26, 03:13:04,VALID,1004.58,VALID,0,VALID,96.2536,VALID,0.100563,VALID,23.2948,VALID,51,VALID,0.0257812,
2008-05-26, 03:14:04,VALID,1004.56,VALID,0,VALID,96.3451,VALID,0,VALID,23.2948,VALID,51,VALID,0,
2008-05-26, 03:15:04,VALID,1004.57,VALID,0,VALID,96.3299,VALID,0,VALID,23.2966,VALID,51,VALID,0,
2008-05-26, 03:16:04,VALID,1004.61,VALID,0,VALID,96.3146,VALID,0.100563,VALID,23.2966,VALID,51,VALID,0,
2008-05-26, 03:17:04,VALID,1004.62,VALID,0,VALID,96.2536,VALID,0.100563,VALID,23.2771,VALID,51,VALID,0,
2008-05-26, 03:18:04,VALID,1004.61,VALID,0,VALID,96.2612,VALID,0,VALID,23.2364,VALID,51,VALID,0,
2008-05-26, 03:19:04,VALID,1004.63,VALID,0,VALID,96.2612,VALID,0,VALID,23.2187,VALID,51,VALID,0,
2008-05-26, 03:20:04,VALID,1004.6,VALID,0,VALID,96.3756,VALID,0,VALID,23.2382,VALID,51,VALID,0,
2008-05-26, 03:21:04,VALID,1004.56,VALID,0,VALID,96.2994,VALID,0,VALID,23.1975,VALID,51,VALID,0,
2008-05-26, 03:22:04,VALID,1004.56,VALID,0,VALID,96.2841,VALID,0.100563,VALID,23.1975,VALID,51,VALID,0,
2008-05-26, 03:23:04,VALID,1004.56,VALID,0,VALID,96.2536,VALID,0,VALID,23.1993,VALID,51,VALID,0,
2008-05-26, 03:24:04,VALID,1004.57,VALID,0,VALID,96.2765,VALID,0,VALID,23.178,VALID,51,VALID,0,
2008-05-26, 03:25:04,VALID,1004.57,VALID,0,VALID,96.2841,VALID,0.100563,VALID,23.178,VALID,51,VALID,0,
2008-05-26, 03:26:04,VALID,1004.58,VALID,0,VALID,96.1697,VALID,0.100563,VALID,23.1002,VALID,51,VALID,0,
2008-05-26, 03:27:04,VALID,1004.62,VALID,0,VALID,96.1392,VALID,0,VALID,23.0613,VALID,51,VALID,0,
2008-05-26, 03:28:04,VALID,1004.63,VALID,0,VALID,96.1697,VALID,0.100563,VALID,23.063,VALID,51,VALID,0,
2008-05-26, 03:29:04,VALID,1004.64,VALID,0,VALID,96.1926,VALID,0,VALID,23.0224,VALID,51,VALID,0,
2008-05-26, 03:30:04,VALID,1004.68,VALID,0,VALID,96.2383,VALID,0.100563,VALID,23.0224,VALID,51,VALID,0,
2008-05-26, 03:31:04,VALID,1004.72,VALID,0,VALID,96.2536,VALID,0.100563,VALID,23.0224,VALID,51,VALID,0,
2008-05-26, 03:32:04,VALID,1004.75,VALID,0,VALID,96.2612,VALID,0.100563,VALID,23.0224,VALID,51,VALID,0,
2008-05-26, 03:33:04,VALID,1004.76,VALID,0,VALID,96.2917,VALID,0.100563,VALID,23.0224,VALID,51,VALID,0,
2008-05-26, 03:34:04,VALID,1004.78,VALID,0,VALID,96.2307,VALID,0,VALID,23.0224,VALID,51,VALID,0.310547,
2008-05-26, 03:35:04,VALID,1004.84,VALID,0,VALID,96.1392,VALID,0.100563,VALID,22.9445,VALID,51,VALID,0.38125,
2008-05-26, 03:36:04,VALID,1004.84,VALID,0,VALID,96.0857,VALID,0.100563,VALID,22.8861,VALID,50,VALID,0.388281,
2008-05-26, 03:37:04,VALID,1004.87,VALID,0,VALID,96.0476,VALID,0,VALID,22.8083,VALID,51,VALID,0.396875,
2008-05-26, 03:38:04,VALID,1004.89,VALID,0,VALID,96.0552,VALID,0,VALID,22.7694,VALID,51,VALID,0.104687,
2008-05-26, 03:39:04,VALID,1004.88,VALID,0,VALID,96.1544,VALID,0.100563,VALID,22.7694,VALID,51,VALID,0,
2008-05-26, 03:40:04,VALID,1004.86,VALID,0,VALID,96.162,VALID,0,VALID,22.7906,VALID,51,VALID,0,
2008-05-26, 03:41:04,VALID,1004.88,VALID,0,VALID,96.2536,VALID,0,VALID,22.7711,VALID,51,VALID,0.0410156,
2008-05-26, 03:42:04,VALID,1004.84,VALID,0,VALID,96.307,VALID,0,VALID,22.7906,VALID,51,VALID,0,
2008-05-26, 03:43:04,VALID,1004.85,VALID,0,VALID,96.3451,VALID,0,VALID,22.8295,VALID,51,VALID,0,
2008-05-26, 03:44:04,VALID,1004.83,VALID,0,VALID,96.3528,VALID,0,VALID,22.8295,VALID,51,VALID,0,
2008-05-26, 03:45:04,VALID,1004.8,VALID,0,VALID,96.368,VALID,0,VALID,22.8489,VALID,51,VALID,0,
2008-05-26, 03:46:04,VALID,1004.81,VALID,0,VALID,96.3604,VALID,0,VALID,22.8701,VALID,51,VALID,0.369922,
2008-05-26, 03:47:04,VALID,1004.78,VALID,0,VALID,96.3375,VALID,0,VALID,22.8489,VALID,46,VALID,0.578906,
2008-05-26, 03:48:04,VALID,1004.78,VALID,0,VALID,96.3222,VALID,0,VALID,22.8489,VALID,40,VALID,0.686328,
2008-05-26, 03:49:04,VALID,1004.81,VALID,0,VALID,96.3833,VALID,0,VALID,22.8489,VALID,34,VALID,0.786328,
2008-05-26, 03:50:04,VALID,1004.83,VALID,0,VALID,96.4138,VALID,0,VALID,22.9091,VALID,24,VALID,0.731641,
2008-05-26, 03:51:04,VALID,1004.82,VALID,0,VALID,96.4138,VALID,0,VALID,22.8684,VALID,19,VALID,0.758594,
2008-05-26, 03:52:04,VALID,1004.85,VALID,0,VALID,96.6045,VALID,0,VALID,22.9657,VALID,12,VALID,0.739844,